Regional Weather Roundup
Issued by NWS Little Rock, AR

Home | Current Version | Previous Version | Graphics & Text | Print | Product List | Glossary On
Versions: 1 2 3 4 5 6 7 8 9 10 11 12 13 14 15 16 17 18 19 20 21 22 23 24 25 26 27 28 29 30 31 32 33 34 35 36 37 38 39 40 41 42 43 44 45 46 47 48 49 50
000
ASUS44 KLZK 151305
RWRLZK

WEATHER ROUNDUP FOR ARKANSAS
NATIONAL WEATHER SERVICE LITTLE ROCK AR
700 AM CST FRI DEC 15 2017

NOTE: "FAIR" INDICATES FEW OR NO CLOUDS BELOW 12,000 FEET WITH NO
SIGNIFICANT WEATHER AND/OR OBSTRUCTIONS TO VISIBILITY.

ARZ001-003-010-029-151400-
NORTHWEST ARKANSAS

CITY           SKY/WX    TMP DP  RH WIND       PRES   REMARKS
FAYETTEVILLE   CLOUDY    31  28  89 S3        30.19R
FORT SMITH     PTCLDY    29  26  89 CALM      30.23R
HARRISON       CLEAR     34  25  69 W9        30.14R WCI  27
BENTONVILLE    PTCLDY    30  26  85 CALM      30.19R
ROGERS         PTCLDY    30  26  85 W5        30.18R WCI  25
SILOAM SPGS    MOCLDY    30  27  88 CALM      30.20R
HIGHFILL       CLEAR     27  25  92 SW6       30.18R WCI  20
SPRINGDALE     MOCLDY    32  27  80 W5        30.19R WCI  27
$$

ARZ004-005-016-151400-
NORTH CENTRAL ARKANSAS

CITY           SKY/WX    TMP DP  RH WIND       PRES   REMARKS
BATESVILLE     MOCLDY    26  23  88 CALM      30.20S
FLIPPIN        CLEAR     28  24  85 CALM      30.18R
MTN HOME       CLEAR     26  24  92 CALM      30.15R
$$

ARZ040-041-151400-
WEST CENTRAL ARKANSAS

CITY           SKY/WX    TMP DP  RH WIND       PRES   REMARKS
MENA           PTCLDY    27  25  93 CALM      30.21R
MOUNT IDA      CLEAR     25  23  92 CALM      30.18S
$$

ARZ009-017-025-026-028-151400-
NORTHEAST ARKANSAS

CITY           SKY/WX    TMP DP  RH WIND       PRES   REMARKS
CORNING        CLOUDY    30  28  93 SW5       30.20  WCI  25
JONESBORO      CLEAR     30  26  85 W6        30.21R WCI  24
NEWPORT        PTCLDY    23  19  85 CALM      30.23
WALNUT RIDGE   CLOUDY    26  24  92 SW5       30.20R WCI  20
BLYTHEVILLE    CLOUDY    30  28  92 CALM      30.21R
$$

ARZ022-023-033-042-044-151400-
CENTRAL ARKANSAS

CITY           SKY/WX    TMP DP  RH WIND       PRES   REMARKS
LITTLE ROCK    PTCLDY    29  25  85 SW6       30.23R WCI  23
N LITTLE ROCK    N/A     33  27  78 CALM      30.25R
JACKSONVILLE   PTCLDY    23  19  87 CALM      30.21R
SEARCY         CLEAR     22  22 100 CALM      30.23R
HOT SPRINGS    CLEAR     28  25  88 NW3       30.23R
RUSSELLVILLE   CLOUDY    27  25  92 E3        30.21R
CLINTON        CLOUDY    25  23  93 CALM      30.22R
$$

ARZ036-151400-
EAST ARKANSAS

CITY           SKY/WX    TMP DP  RH WIND       PRES   REMARKS
WEST MEMPHIS   PTCLDY    23  23 100 CALM      30.22R FOG
$$

ARZ050-053-066-070-073-151400-
SOUTHWEST ARKANSAS

CITY           SKY/WX    TMP DP  RH WIND       PRES   REMARKS
ARKADELPHIA    FAIR      21  18  88 CALM      30.25R
CAMDEN         MOCLDY    28  25  86 CALM      30.25R
TEXARKANA      PTCLDY    32  28  85 CALM      30.25R
EL DORADO      CLOUDY    31  30  96 CALM      30.24S
DE QUEEN       PTCLDY    23  23 100 CALM      30.23R
$$

ARZ056-057-069-151400-
SOUTHEAST ARKANSAS

CITY           SKY/WX    TMP DP  RH WIND       PRES   REMARKS
PINE BLUFF     CLOUDY    28  25  88 W3        30.24R
STUTTGART      PTCLDY    28  25  88 NW6       30.24R WCI  22
MONTICELLO     CLOUDY    32  27  81 CALM      30.24R

$$





USA.gov is the U.S. government's official web portal to all federal, state and local government web resources and services.